Weather in Drachten

Netherlands     53°06′10″N   6°05′01″E
temp.,
°C
wind,
m/s
gust,
m/s
humid.,
%
clouds,
%
prec.,
mm/h
press.,
hPa
HPBL,
m
27 january, thu
thu2701:00+6wsw91784100 0.0 1023782
04:00+6wsw91786100 0.0 1020661
07:00+7wsw91691100 1.2 1019806
10:00+8w91692100 0.1 1019791
13:00+8wnw81378100 0.3 10191174
16:00+7wnw813758 0.1 1020987
19:00+6wnw9158250 0.3 10221121
22:00+5nw915795 0.0 1024974
28 january, fri
fri2801:00+4nw915755 0.0 10271044
04:00+4nw814695 0.0 1029814
07:00+4nw613715 0.0 1031587
10:00+4wnw398319 0.0 1033381
13:00+7wnw67685 0.1 10331067
16:00+6wsw5975100 0.0 1032627
19:00+5sw61384100 0.0 1030578
22:00+6sw71487100 0.0 1028710
29 january, sat
sat2901:00+7sw81587100 0.0 1025557
04:00+8wsw81590100 0.0 1023683
07:00+9wsw81590100 0.0 1021681
10:00+9wsw91590100 0.0 1020830
13:00+11wsw10188475 0.0 1018924
16:00+11wsw12218150 0.0 10151094
19:00+10wnw132070100 0.1 10161563
22:00+7nw12186610 0.1 10201650
30 january, sun
sun3001:00+6wnw1118707 0.1 10221392
04:00+5wnw12206718 0.0 10241463
07:00+5nw12196984 0.1 10251351
10:00+6nw10167411 0.0 10271241
13:00+7nw9147168 0.1 10291442
16:00+6nw710755 0.1 10301072
19:00+4nw497499 0.2 1029435
22:00+3wnw3878100 0.1 1028172
31 january, mon
mon3101:00+3w3581100 0.2 1026103
04:00+3sw3480100 0.1 102381
07:00+3sw3582100 0.1 1021120
10:00+1ssw4799100 1.3 1020251
13:00+2wsw3599100 3.8 1019408
16:00+3w2690100 0.4 1019530
19:00+3w3787100 0.4 1019295
22:00+4wnw4108894 0.2 1020446